Regional Weather Roundup
Issued by NWS Goodland, KS

Home | Current Version | Previous Version | Text Only | Print | Product List | Glossary On
Versions: 1 2 3 4 5 6 7 8 9 10 11 12 13 14 15 16 17 18 19 20 21 22 23 24 25 26 27 28 29 30 31 32 33 34 35 36 37 38 39 40 41 42 43 44 45 46 47 48 49 50
000
ASUS43 KGLD 041159
RWRGLD

GOODLAND FORECAST AREA HOURLY WEATHER ROUNDUP
NATIONAL WEATHER SERVICE GOODLAND KS
600 AM MDT TUE AUG 04 2015

...OFFICIAL OBSERVATIONS...

CITY           SKY/WX    TMP DP  RH WIND       PRES   REMARKS
GOODLAND KS    CLEAR     66  61  84 SW7       29.97R
HILL CITY KS   MOCLDY    70  65  84 CALM      29.93R
IMPERIAL NEB   FOG       67  66  97 E6        29.96R VSB 1/2
MCCOOK NEB     FOG       67  67 100 CALM      29.94R VSB 1/4
AKRON CO       CLEAR     59  54  83 SW7       29.99S
BURLINGTON CO  CLEAR     63  59  87 S10       29.99S
LIMON CO       CLEAR     49  47  93 N6        30.04F
$$

...UNOFFICIAL OBSERVATIONS...

CITY           SKY/WX    TMP DP  RH WIND       PRES   REMARKS
COLBY KS       CLEAR     70  66  88 S3        29.97R
NORTON KS      CLEAR     68  64  88 CALM      29.93R
SHARON SPRINGS   N/A     65  63  93 SW5         N/A
KIT CARSON CO    N/A     57  54  90 MISG        N/A
YUMA CO          N/A     58  54  88 CALM        N/A
$$


USA.gov is the U.S. government's official web portal to all federal, state and local government web resources and services.